This demonstration page uses our WeatherBlox Daily Observations layout. Learn more.

41.55636, -103.73856

Hourly Observations for May 15, 2018

Temp ( °F °C ) Dew Point ( °F °C ) Humidity (%) Winds ( mph kmh ) Pressure ( in mb ) Visibility ( mi km ) Precip ( " mm )
12:58 am 00:58 Clear 40 4.7 39 3.9 95 95 W 6 9 30.12 1020 10 16.0934 N/A
1:58 am 01:58 Clear 41 4.8 40 4.3 97 97 WNW 10 17 30.11 1020 10 16.0934 N/A
2:58 am 02:58 Clear 39 4.1 38 3.3 95 95 WNW 7 11 30.11 1020 10 16.0934 N/A
3:58 am 03:58 Clear 40 4.4 38 3.4 93 93 WNW 8 13 30.1 1019 10 16.0934 N/A
4:58 am 04:58 Clear 39 4 38 3.1 94 94 NNW 12 19 30.14 1021 10 16.0934 N/A
5:58 am 05:58 Sunny 39 4 37 2.9 93 93 WNW 5 7 30.16 1021 10 16.0934 0 0
6:58 am 06:58 Sunny 43 6.1 42 5.3 95 95 WSW 5 7 30.15 1021 10 16.0934 N/A
7:58 am 07:58 Sunny 50 9.9 46 7.8 87 87 WSW 3 6 30.14 1021 10 16.0934 N/A
8:58 am 08:58 Sunny 55 12.8 45 7.4 70 70 SW 7 11 30.14 1021 10 16.0934 N/A
9:58 am 09:58 Sunny 58 14.3 44 6.8 61 61 S 7 11 30.12 1020 10 16.0934 N/A
10:58 am 10:58 Sunny 60 15.5 41 5 50 50 SSW 6 9 30.1 1019 10 16.0934 N/A
11:58 am 11:58 Sunny 62 16.4 46 8 58 58 S 5 7 30.09 1019 10 16.0934 N/A
12:58 pm 12:58 Sunny 64 17.9 45 7.3 50 50 SSW 7 11 30.07 1018 10 16.0934 N/A
1:58 pm 13:58 Mostly Sunny 66 19 44 6.8 45 45 SSW 7 11 30.04 1017 10 16.0934 N/A
2:58 pm 14:58 Sunny 69 20.4 46 7.8 44 44 SSW 12 19 30.02 1017 10 16.0934 N/A
3:58 pm 15:58 Sunny 70 20.9 45 7.4 42 42 S 10 17 29.99 1016 10 16.0934 N/A
4:58 pm 16:58 Mostly Sunny 69 20.4 42 5.6 38 38 S 5 7 30.01 1016 10 16.0934 N/A
5:58 pm 17:58 Mostly Cloudy 66 18.9 48 9.1 53 53 ESE 6 9 30.01 1016 10 16.0934 N/A
6:58 pm 18:58 Mostly Sunny 63 17 50 10 64 64 ESE 6 9 29.99 1016 10 16.0934 0.05 1.27
7:58 pm 19:58 Sunny 58 14.4 48 8.8 69 69 E 8 13 29.99 1016 10 16.0934 N/A
8:58 pm 20:58 Clear 56 13.1 49 9.5 79 79 E 13 20 30 1016 10 16.0934 0 0
9:58 pm 21:58 Clear 56 13.2 51 10.3 83 83 ESE 12 19 30 1016 10 16.0934 N/A
10:58 pm 22:58 Clear 53 11.8 50 9.8 88 88 SE 7 11 30.01 1016 10 16.0934 N/A
11:58 pm 23:58 Clear 51 10.4 49 9.6 95 95 ESE 3 6 30.02 1017 10 16.0934 0 0

Powered by AerisWeather